Dewpoint
-15 -15 -14 -14 -14 -13 -13 -12 -12 -12 -12 -12 -13 -13 -13 -13 -10 -7 5 9 9 10 10 9 10 12 11 10 4 2 5 11 11
-15 -14 -14 -13 -13 -13 -12 -12 -12 -12 -12 -12 -11 -11 -10 -10 -11 -12 -12 -8 6 9 9 10 10 11 12 11 10 7 4 7 11
-13 -13 -12 -12 -12 -12 -12 -13 -14 -14 -14 -14 -14 -14 -14 -13 -10 -8 -8 -10 -11 -6 3 8 8 10 10 11 11 11 11 11 10
-11 -11 -12 -13 -14 -15 -15 -14 -14 -13 -12 -11 -11 -10 -8 -8 -9 -10 -7 -6 -6 -7 -5 -3 -1 7 9 10 11 11 11 11 10
-12 -13 -14 -14 -13 -13 -12 -12 -11 -10 -9 -8 -8 -7 -6 -5 -5 -5 -6 -4 -2 -0 6 3 5 3 5 7 9 11 12 11 11
-12 -11 -12 -13 -13 -13 -11 -10 -9 -8 -7 -7 -7 -6 -5 -3 -3 -3 -4 -4 -1 1 7 5 6 8 6 7 10 11 12 12 11
-10 -11 -12 -13 -13 -11 -9 -8 -7 -7 -7 -7 -7 -7 -6 -4 -1 -0 -0 -1 -2 1 6 7 2 5 9 10 9 9 8 7 8
-10 -12 -13 -14 -13 -11 -9 -7 -7 -7 -7 -7 -7 -6 -6 -5 -3 0 1 1 1 0 3 6 6 3 2 2 3 3 2 1 1
-11 -12 -14 -14 -13 -10 -8 -7 -6 -6 -6 -7 -6 -5 -5 -5 -4 -2 -0 0 0 1 2 2 4 6 7 4 1 -1 -2 -2 -1
-10 -11 -13 -14 -13 -10 -7 -5 -5 -6 -7 -6 -5 -5 -4 -2 -2 -1 -2 -2 -1 -1 5 7 7 6 5 2 2 4 5 6 7
-9 -9 -11 -13 -13 -10 -6 -5 -5 -6 -5 -5 -5 -4 -2 -2 -1 -1 0 0 1 0 5 6 6 2 5 5 7 7 7 6 6
-8 -9 -9 -11 -13 -10 -7 -4 -4 -5 -4 -4 -4 -3 -1 -1 0 1 2 2 2 1 1 2 4 7 8 8 8 8 7 5 4
-8 -8 -8 -9 -12 -12 -9 -6 -5 -4 -4 -2 -2 -1 -1 0 1 2 2 3 2 2 4 4 6 7 7 7 7 6 3 2 7
-8 -8 -7 -8 -10 -12 -10 -8 -6 -6 -3 -0 0 0 1 2 2 2 2 3 3 3 3 3 3 4 4 3 2 2 4 4 5
-7 -7 -7 -6 -7 -10 -10 -9 -9 -6 -3 -0 2 2 3 3 2 2 3 3 3 4 4 3 3 3 2 2 2 2 5 6 5
-7 -7 -6 -5 -5 -7 -11 -8 -9 -8 -6 -3 -1 2 3 3 3 3 3 2 3 4 4 4 4 4 4 3 3 2 2 6 5
-7 -8 -7 -5 -4 -5 -7 -10 -8 -8 -7 -6 -2 -0 1 3 1 2 3 2 3 5 5 4 4 4 4 3 3 2 -1 4 5
-8 -10 -8 -5 -4 -4 -5 -6 -8 -8 -7 -6 -6 -1 1 -2 1 2 2 1 2 4 5 4 4 4 3 3 2 1 0 1 4
-10 -11 -10 -7 -4 -4 -4 -4 -4 -6 -5 -5 -4 -4 -2 1 2 -0 0 1 1 3 4 4 4 4 3 3 2 2 2 1 -4
-11 -11 -11 -9 -6 -3 -4 -3 -2 -2 -4 -4 -4 -2 -2 0 2 1 -3 -6 1 1 2 4 4 4 3 3 3 2 2 -4 -13
Wind_Speed
10 10 11 12 12 12 12 12 13 13 13 14 15 15 16 17 17 18 16 15 15 14 12 12 10 13 12 10 9 9 9 8 7
11 11 12 13 14 14 15 15 15 16 16 17 17 17 17 17 17 18 18 18 18 17 17 15 15 14 15 14 13 12 11 11 11
12 13 13 14 15 16 16 17 17 17 18 18 19 19 18 17 17 17 17 17 18 18 19 20 20 19 18 19 17 15 14 14 15
12 14 14 14 15 16 16 17 17 18 19 19 19 19 18 17 16 16 16 15 14 14 15 17 21 22 22 18 18 18 16 15 15
13 14 15 15 16 17 17 18 19 19 19 18 18 18 17 15 15 14 14 13 12 11 11 13 14 19 23 22 18 17 17 16 16
14 15 16 18 18 18 18 19 18 18 17 18 18 17 16 16 14 13 13 12 12 10 8 12 11 13 15 17 14 13 20 10 8
15 16 17 17 17 18 19 18 18 18 18 17 17 16 15 14 13 12 11 11 10 10 8 12 13 12 12 13 14 15 18 16 12
14 15 15 16 17 17 18 18 18 18 18 17 16 15 14 13 12 11 10 9 8 7 8 9 11 13 14 16 16 18 19 18 17
14 15 16 17 18 18 18 19 19 18 18 17 15 15 14 12 11 10 10 11 10 8 7 7 8 8 11 16 18 17 16 16 16
14 16 17 18 19 19 19 18 18 18 17 16 14 13 12 11 11 10 10 10 10 8 6 4 3 6 10 11 8 7 8 7 6
14 16 17 18 19 19 19 19 18 18 17 14 12 10 10 10 11 11 11 11 11 9 6 4 5 6 6 4 3 3 4 7 9
14 16 17 18 18 18 18 18 18 16 14 12 11 9 9 10 11 11 12 12 12 11 8 6 8 7 5 5 4 3 4 8 10
14 16 16 17 17 18 18 17 16 14 13 10 9 9 8 9 9 10 11 12 11 10 8 6 4 5 8 8 7 8 10 9 7
14 15 16 17 17 17 17 17 16 15 11 7 7 6 6 7 8 8 9 10 10 9 7 4 2 3 6 9 9 7 9 5 8
14 16 16 16 16 16 16 16 15 14 11 7 5 4 4 5 5 6 8 8 7 6 5 5 4 4 4 5 7 9 12 13 11
15 17 17 16 15 15 15 15 16 14 11 8 6 4 3 4 5 6 6 6 4 4 3 5 7 7 7 7 8 10 12 13 11
16 17 15 14 13 13 13 14 14 15 14 10 5 3 4 4 9 6 5 5 3 2 3 4 6 8 12 11 8 10 14 14 15
16 14 13 13 12 12 12 13 13 13 13 12 8 4 4 11 2 4 5 6 5 5 5 5 6 7 9 11 12 14 16 19 15
13 13 12 12 12 11 11 12 12 13 11 10 9 7 5 5 5 4 7 7 9 7 8 8 9 9 9 13 15 18 21 24 21
12 13 12 11 11 11 11 11 12 12 11 10 9 8 6 4 5 9 11 10 8 10 9 9 10 9 11 15 17 21 25 24 19
Wind_Direction
345 345 344 343 341 338 335 331 327 322 316 311 304 299 294 290 286 283 278 279 278 277 273 270 271 269 281 291 282 280 275 273 285
346 347 347 345 341 338 334 330 326 323 319 313 308 304 300 297 292 288 282 276 270 270 270 270 267 267 271 270 271 267 264 262 268
351 347 344 342 338 336 334 330 330 325 321 317 314 309 304 300 295 293 291 284 277 272 268 265 265 267 281 263 265 270 269 262 268
353 348 345 344 343 338 335 332 331 328 325 322 319 316 313 310 304 297 293 292 287 281 280 275 263 264 272 274 271 265 267 268 264
354 356 350 348 348 343 339 338 336 335 333 332 330 328 326 320 313 305 296 290 287 283 292 290 298 263 267 275 281 271 264 270 272
356 358 354 353 349 343 345 343 343 343 342 339 337 337 335 331 326 320 306 294 283 279 306 288 286 289 278 276 283 281 258 240 265
356 357 355 352 351 350 350 349 350 346 346 345 344 345 345 344 339 333 325 314 302 289 285 291 282 286 287 283 278 277 279 290 284
357 358 357 356 357 355 353 353 351 351 349 348 348 350 352 352 352 347 341 332 319 303 283 274 284 287 288 283 280 283 289 289 278
360 0 360 1 0 358 357 356 355 352 348 346 351 354 353 356 358 355 350 343 338 332 320 302 290 293 284 289 296 298 292 290 288
4 3 3 2 360 359 358 357 355 352 352 353 354 355 4 9 9 7 4 359 357 356 1 348 318 280 296 315 333 337 336 338 337
3 3 2 1 0 359 358 355 357 357 356 358 356 357 13 21 23 22 18 13 11 11 37 37 1 5 13 45 342 357 5 340 322
0 1 360 358 358 359 357 356 360 358 359 3 16 31 34 35 35 31 27 23 20 24 36 42 49 34 44 47 47 32 10 325 320
355 357 355 354 355 357 358 359 0 3 3 13 26 40 45 39 33 27 27 28 29 38 61 74 77 47 47 41 26 3 330 304 350
349 348 347 349 352 355 357 359 2 7 11 15 29 36 31 26 21 19 23 27 31 39 47 43 19 343 320 327 324 336 2 333 304
339 338 338 341 347 351 353 358 1 8 9 10 5 2 3 2 6 7 12 16 20 27 24 7 5 352 333 334 340 353 16 4 359
332 331 332 334 339 344 350 357 1 6 13 9 335 313 315 338 335 337 343 347 350 6 5 17 8 1 354 347 349 354 354 9 4
326 327 327 328 331 337 345 352 360 1 4 13 5 328 304 294 304 290 313 325 329 300 298 341 353 0 357 350 352 358 3 7 3
322 324 326 324 324 328 336 345 351 359 2 7 20 354 326 331 293 285 293 324 299 283 273 275 301 317 333 338 349 350 350 348 351
315 321 325 324 322 321 325 332 341 349 353 358 0 358 338 329 322 278 293 296 304 289 275 275 278 290 310 316 324 334 338 336 334
310 314 317 318 316 313 313 319 327 334 338 341 344 341 337 319 299 309 321 326 278 296 292 271 274 283 306 308 315 324 329 333 334
Height
1571 1569 1568 1567 1566 1565 1563 1562 1560 1559 1558 1557 1556 1555 1554 1553 1552 1551 1551 1550 1550 1550 1549 1549 1548 1548 1547 1546 1546 1545 1544 1544 1543
1569 1568 1566 1565 1564 1562 1561 1559 1558 1556 1555 1553 1552 1551 1550 1549 1548 1547 1546 1546 1546 1547 1546 1546 1545 1545 1544 1543 1542 1541 1541 1541 1541
1568 1567 1565 1564 1562 1561 1559 1556 1554 1553 1551 1549 1548 1547 1546 1545 1544 1543 1542 1542 1542 1542 1543 1542 1542 1541 1541 1540 1540 1539 1539 1538 1538
1567 1566 1564 1562 1561 1559 1557 1554 1552 1550 1548 1546 1544 1543 1541 1540 1539 1539 1538 1538 1538 1538 1538 1537 1537 1537 1537 1537 1537 1537 1536 1536 1536
1566 1564 1563 1561 1559 1557 1554 1552 1550 1548 1545 1543 1541 1539 1538 1537 1536 1535 1534 1535 1535 1535 1535 1534 1533 1533 1533 1534 1533 1533 1533 1533 1533
1565 1562 1561 1559 1557 1555 1552 1550 1548 1545 1543 1542 1539 1537 1536 1534 1533 1532 1531 1531 1531 1532 1532 1531 1531 1530 1530 1530 1530 1530 1529 1529 1530
1564 1562 1560 1558 1556 1553 1550 1549 1546 1544 1542 1540 1538 1536 1534 1532 1531 1530 1528 1528 1528 1529 1530 1529 1529 1528 1528 1527 1527 1526 1526 1526 1525
1563 1561 1560 1557 1555 1552 1550 1547 1545 1543 1541 1539 1536 1534 1533 1531 1529 1528 1527 1526 1526 1526 1526 1526 1526 1526 1525 1524 1523 1523 1523 1523 1523
1563 1561 1559 1556 1554 1552 1549 1547 1544 1542 1539 1537 1535 1533 1532 1530 1529 1527 1526 1525 1524 1524 1523 1523 1523 1523 1522 1521 1521 1520 1520 1519 1518
1562 1560 1558 1556 1553 1551 1548 1546 1543 1541 1538 1536 1534 1533 1531 1530 1529 1528 1526 1525 1524 1523 1522 1523 1523 1521 1520 1520 1519 1518 1518 1517 1516
1562 1560 1558 1555 1553 1550 1547 1545 1542 1539 1537 1535 1533 1532 1531 1530 1529 1528 1527 1525 1524 1523 1523 1522 1522 1521 1520 1519 1518 1518 1517 1517 1516
1561 1559 1557 1555 1553 1550 1548 1545 1542 1539 1537 1535 1533 1532 1531 1530 1529 1528 1527 1526 1525 1524 1523 1523 1522 1522 1520 1519 1518 1517 1516 1517 1514
1561 1559 1557 1555 1552 1550 1548 1545 1542 1540 1537 1535 1534 1532 1531 1530 1530 1529 1528 1527 1526 1525 1524 1523 1522 1522 1521 1520 1518 1517 1516 1515 1514
1560 1558 1556 1554 1552 1549 1547 1544 1542 1539 1537 1536 1534 1533 1532 1531 1530 1530 1529 1528 1527 1527 1526 1525 1523 1522 1521 1521 1519 1517 1515 1514 1513
1559 1557 1555 1553 1551 1549 1547 1544 1541 1539 1537 1536 1535 1534 1533 1532 1531 1530 1529 1528 1527 1527 1527 1526 1524 1522 1521 1520 1519 1517 1516 1514 1513
1558 1556 1554 1552 1550 1548 1546 1544 1541 1539 1537 1536 1534 1534 1533 1533 1531 1531 1530 1528 1528 1527 1527 1526 1524 1523 1521 1520 1518 1517 1515 1514 1512
1556 1554 1552 1550 1549 1547 1545 1543 1541 1538 1536 1535 1533 1534 1534 1532 1531 1530 1529 1528 1527 1526 1526 1525 1524 1523 1522 1519 1518 1516 1514 1512 1511
1554 1552 1550 1549 1548 1546 1545 1543 1540 1539 1536 1534 1535 1534 1534 1531 1529 1529 1528 1527 1527 1526 1526 1525 1523 1522 1521 1520 1517 1515 1513 1511 1509
1551 1549 1549 1547 1546 1544 1543 1542 1540 1539 1537 1536 1534 1534 1533 1533 1529 1528 1527 1526 1525 1524 1524 1523 1522 1521 1520 1519 1517 1514 1512 1509 1506
1549 1547 1546 1545 1544 1542 1541 1540 1539 1538 1537 1535 1534 1534 1532 1532 1532 1528 1526 1525 1523 1522 1522 1521 1520 1519 1519 1517 1515 1513 1510 1507 1503